STARLINK-1329 (45531 NORAD) Tracking and Keplerian Element Data

This shows tracking and keplerian element data for the satellite.

Feedback or suggestion? Click here.




ElementValue
Catalog45531
NameSTARLINK-1329
Epoch Orbit1243
Epoch Day190.16667824
Epoch Year2020
RAAN41.5621
Inclination53
Eccentricity0.0001298
Argument of Perigee87.2008
Mean Anonmoly280.5893
Mean Motion15.05600923
Decay Rate-0.0002137
L11 45531U 20025A 20190.16667824 -.00021370 00000-0 -14511-2 0 9998
L22 45531 53.0000 41.5621 0001298 87.2008 280.5893 15.05600923 12438

Live tracking and technical data element details for STARLINK-1329 (NORAD 45531). STARLINK-1329 can be tracked NOW for your location showing map with azimuth and elevation plus other details from your city location.

Track the satellite on the map from your city or location and see movement details for azimuth, elevation, latitude, longitude, range, height, and movement on the map or in text.







IsCatalogInMostPopularTable: catalog: 45531, numindb: 22
Update: records affected: 1



GetName: 45531 STARLINK-1329

Hit Count: updated at: Thu, 09 Jul 2020 00:30:56 GMT